sat.trackr.live / text

‹ back to catalog

STARLINK-3784

NORAD 52275 · 2022-041Q

PAYLOAD ACTIVE UNKNOWN

§ Identity

Operator
Country
US
Launch date
2022-04-21
Launch site
AFETR
Launch vehicle
Mass (kg)
RCS (m²)

Purposes: comms

External: N2YO · Heavens-Above · Gunter

§ Orbital elements

Epoch: 2026-09-19T15:33:49.913568Z

Period
93.85 min
Inclination
53.1625°
Eccentricity
0.0001257
Mean motion
15.34384930 rev/d
Perigee alt
461.9 km
Apogee alt
463.6 km
Semi-major
6,840.9 km
B*
4.2833e-6
RAAN
311.6028°
Arg perigee
89.0417°
Mean anomaly
271.0730°
Rev number
24,373

§ Raw data

STARLINK-37841 52275U 22041Q   26262.64849437 -.00000232  00000+0  42833-5 0  99952 52275  53.1625 311.6028 0001257  89.0417 271.0730 15.34384930243739

JSON: /api/v1/satellites/52275 · /tle

For live sub-satellite position, see the globe view (requires WebGL).

§ Visibility from observer

Set your observer location to see the next 7 days of passes ≥ 10°. The values pass through the URL so the page stays shareable.

No JS? Fill the form by hand. The geolocation button needs JavaScript.